Location: Ladrillo (historical)
(32.8195°N, 117.2231°W)
Time: 21:31:24
(UTC+00:00)

Cosmos 407 Rocket - Pass Details

Date: 29 October 2020
Orbit: 743 x 787 km, 74.1° (Epoch: 25 November)

Event Time Altitude Azimuth Distance (km) Brightness Sun altitude
Rises 12:24:35 0° 181° (S) 3,164 6.7 -21.5°
Reaches altitude 10° 12:26:59 10° 175° (S) 2,245 6.0 -21.0°
Maximum altitude 12:31:51 47° 102° (ESE) 977 4.5 -20.0°
Drops below altitude 10° 12:36:45 10° 29° (NNE) 2,270 6.2 -19.0°
Sets 12:39:11 0° 24° (NNE) 3,203 7.0 -18.5°
